OK5TVR-5 Weather Reports


time (UTC)temp
F
wind
direction
speed
knots
gust
knots
rain 1hr
in
rain 24hr
in
rain mn
in
humidity
%
barometer
mb
20260506044547 53 90 0.9 2.6 0.00 0.01 0.00 10 999.9
20260506043047 52 135 1.7 3.5 0.00 0.01 0.00 10 999.9
20260506041546 52 45 0.0 0.0 0.00 0.01 0.00
20260506041544 52 45 0.0 0.0 0.00 0.01 0.00 10 1000.0
20260506040045 51 222 0.0 0.0 0.00 0.00 0.00 10 1000.0
20260506034543 51 180 0.0 0.0 0.00 0.01 0.00 10 1000.0
20260506033041 52 180 0.0 0.0 0.00 0.01 0.00 10 1000.0
20260506030039 50 180 0.0 0.0 0.00 0.01 0.00 10 1000.1
20260506024538 0 315 0.0 0.0 0.00 0.00 0.00
20260506024536 49 315 0.0 0.0 0.00 0.00 0.00 10 1000.2
20260506023038 49 90 0.0 0.9 0.00 0.00 0.00 10 1000.1
20260506021535 50 270 0.0 0.0 0.00 0.01 0.00 10 1000.1
20260506020033 50 0 0.0 0.0 0.00 0.01 0.00 10 1000.0
20260506014531 51 180 0.0 0.0 0.00 0.01 0.00 10 1000.0
20260506013030 52 180 0.0 0.0 0.00 0.01 0.00 10 1000.0
20260506011530 51 135 0.0 0.0 0.00 0.01 0.00 10 1000.0
20260506010028 50 180 0.0 0.0 0.00 0.01 0.00 10 1001.1
20260506004529 51 180 0.0 0.0 0.00 0.01 0.00 10 1000.0
20260506003029 51 315 0.0 0.0 0.00 0.01 0.00 10 1000.0
20260506001530 50 222 0.0 0.0 0.00 0.01 0.00 1000.0
20260506001528 50 222 0.0 0.0 0.00 0.01 0.00 10 1000.0
20260506000027 51 180 0.0 0.0 0.00 0.01 0.00 10 1001.1
20260505234527 51 180 0.0 0.0 0.00 0.01 0.00 10 1001.0
20260505233025 52 180 0.0 0.0 0.00 0.01 0.00 10 1001.0
20260505231525 53 315 0.0 0.0 0.00 0.01 0.00
20260505231523 53 315 0.0 0.0 0.00 0.01 0.00 10 1000.9
20260505224522 55 180 0.0 0.0 0.01 0.01 0.00 99 999.7
20260505223019 55 222 0.0 0.0 0.01 0.01 0.00 10 999.7
20260505214708 55 270 0.0 0.0 0.00 0.01 0.00 10 999.7
20260505213206 55 135 0.9 1.7 0.00 0.01 0.00 10 999.7
20260505211705 55 270 0.0 0.0 0.00 0.01 0.00 10 999.7
20260505210203 55 180 1.7 3.5 0.00 0.01 0.00 10 996.7
20260505204700 56 222 2.6 3.5 0.00 0.01 0.00 10 999.8
20260505203158 56 270 1.7 3.5 0.00 0.00 0.00 10 999.7
20260505201658 56 180 2.6 4.3 0.00 0.01 0.00 10 999.8
20260505200157 56 180 2.6 3.5 0.00 0.01 0.00 10 999.7
20260505194655 56 315 7.0 9.6 0.08 0.08 0.00 99 999.7
20260505193155 56 270 6.1 10.4 0.07 0.08 0.00 10 999.7
20260505191654 57 270 7.8 13.9 0.07 0.08 0.00 10 999.7
20260505184651 61 180 0.9 1.7 0.01 0.07 0.00 92 998.4
20260505183151 61 222 1.7 4.3 0.00 0.07 0.00 97 998.4
20260505181651 61 45 6.1 11.3 0.00 0.07 0.00 93 996.2
20260505180150 62 0 12.2 20.9 0.00 0.07 0.00 89 996.2
20260505174652 62 222 8.7 17.4 0.00 0.00 0.00
20260505173151 64 270 1.7 3.5 0.05 0.00 0.00 85 997.0
20260505171650 68 45 7.8 12.2 0.00 0.00 0.00 63 996.8
20260505170151 69 315 9.6 14.8 0.00 0.00 0.00 60 995.7
20260505164648 69 0 7.0 13.0 0.00 0.00 0.00 61 995.7
20260505163148 69 315 9.6 17.4 0.00 0.00 0.00 59 995.7
20260505161648 70 0 8.7 14.8 0.00 0.00 0.00 58 996.7
20260505160147 71 270 8.7 13.9 0.00 0.00 0.00 54 996.6
20260505153143 75 270 5.2 9.6 0.00 0.00 0.00 42 996.3
20260505151641 76 90 5.2 9.6 0.00 0.00 0.00 41 996.2
20260505150141 79 90 3.5 7.8 0.00 0.00 0.00 36 996.0
20260505140138 85 222 1.7 3.5 0.00 0.00 0.00 26 995.7
20260505140136 85 222 1.7 3.5 0.00 0.00 0.00 26 995.7
20260505130129 85 90 2.6 6.1 0.00 0.00 0.00 26 995.6
20260505124630 81 315 3.5 7.0 0.00 0.00 0.00 36 997.0
20260505123131 83 45 2.6 6.1 0.00 0.00 0.00 34 996.8
20260505121631 84 90 1.7 4.3 0.00 0.00 0.00
20260505120129 84 90 1.7 3.5 0.00 0.00 0.00 31 996.8
20260505114627 84 135 2.6 5.2 0.00 0.00 0.00 34 996.8
20260505113126 83 270 1.7 6.1 0.00 0.00 0.00 37 996.9
20260505111627 81 180 2.6 7.0 0.00 0.00 0.00 39 997.1
20260505110125 83 90 3.5 7.0 0.00 0.00 0.00 33 996.8
20260505101622 78 180 2.6 7.0 0.00 0.00 0.00 39 998.2
20260505100121 80 90 2.6 5.2 0.00 0.00 0.00 37 998.0
20260505094619 77 222 2.6 7.0 0.00 0.00 0.00 39 998.3
20260505093115 79 135 0.9 3.5 0.00 0.00 0.00 38 998.2
20260505091613 78 270 1.7 3.5 0.00 0.00 0.00 41 998.2
20260505090113 0 270 3.5 0.0 0.00 0.00 0.00 43 999.3
20260505090111 77 270 3.5 7.0 0.00 0.00 0.00 43 999.3
20260505084610 79 90 0.9 3.5 0.00 0.00 0.00 40 999.2
20260505083107 75 222 1.7 3.5 0.00 0.00 0.00 47 999.5
20260505080108 76 135 0.9 2.6 0.00 0.00 0.00 45 999.4
20260505074607 73 180 0.9 3.5 0.00 0.00 0.00 50 999.5
20260505074605 0 180 0.9 0.0 0.00 0.00 0.00 50 999.5
20260505073105 74 315 2.6 6.1 0.00 0.00 0.00 51 999.5
20260505071603 73 135 3.5 7.0 0.00 0.00 0.00 51 999.5
20260505070103 72 90 2.6 3.5 0.00 0.00 0.00 53 999.6
20260505064601 70 315 3.5 7.0 0.00 0.00 0.00 57 999.8
20260505063101 68 0 3.5 7.0 0.00 0.00 0.00 59 1000.9
20260505061559 66 0 3.5 7.8 0.00 0.00 0.00 62 1001.1
20260505054556 59 180 0.0 0.0 0.00 0.00 0.00 78 1001.5
20260505053053 59 180 0.0 0.0 0.00 0.00 0.00 78 1001.5
20260505051553 57 180 0.0 0.0 0.00 0.00 0.00 82 1001.7